Home   Weather   Modena   Past weeks

Flag for Italy Past Weather in Modena, Italy — Yesterday and Last 2 Weeks

Now
36 °F

Partly sunny.


Feels Like: 33 °F
Forecast: 32 / 42 °F
Wind: 3 mph from West

Location: Bologna / Borgo Panigale

Current Time: Jan 22, 2017 at 11:34:55 am

Latest Report: Jan 22, 2017 at 10:50 am


Visibility: 4 mi

Pressure: 30.39 "Hg

Humidity: 70%

Dew Point: 27 °F

Location of ModenaLocation

Past Weather in Modena — Graph

°F

Modena Temperature Yesterday

Maximum temperature yesterday: 41 °F (at 3:20 pm)
Minimum temperature yesterday: 21 °F (at 7:20 am)
Average temperature yesterday: 32 °F

High & Low Weather Summary for the Past Weeks

 TemperatureHumidityPressure
High50 °F (Jan 14, 2:50 pm)100% (Jan 13, 7:50 am)30.51 "Hg (Jan 13, 7:50 am)
Low19 °F (Jan 9, 3:20 am)32% (Jan 14, 1:50 pm)29.47 "Hg (Jan 13, 1:50 pm)
Average33 °F69%30.14 "Hg
* Reported Jan 7 10:20 am — Jan 22 10:20 am, Modena, Weather by CustomWeather, © 2017

Note: Actual official high and low records may vary slightly from our data, if they occured in-between our weather recording intervals... More about our weather records

Advertising

Modena Weather History for the Previous 24 Hours

Scroll right to see more
 ConditionsComfort  
Time TempWeatherWind HumidityBarometerVisibility
10:20 am
Sun, Jan 22
36 °FPartly sunny.5 mph70%30.39 "Hg4 mi
9:50 am34 °FPartly sunny.5 mph81%30.39 "Hg5 mi
9:20 am34 °FPartly sunny.3 mph81%30.39 "Hg5 mi
8:50 am34 °FPartly sunny.3 mph81%30.39 "Hg5 mi
8:20 am32 °FPartly sunny.3 mph87%30.39 "Hg5 mi
7:50 am32 °FPartly sunny.3 mph80%30.39 "HgN/A
7:20 am30 °FPassing clouds.5 mph86%30.39 "HgN/A
6:50 am30 °FPassing clouds.3 mph80%30.36 "HgN/A
6:20 am27 °FPassing clouds.3 mph86%30.36 "HgN/A
5:20 am25 °FClear.2 mph86%30.36 "Hg10 mi
3:50 am28 °FClear.3 mph86%30.39 "Hg10 mi
3:20 am27 °FClear.2 mph86%30.39 "Hg10 mi
1:50 am28 °FClear.3 mph80%30.39 "Hg10 mi
1:20 am30 °FPassing clouds.3 mph80%30.39 "HgN/A
12:20 am30 °FClear.5 mph75%30.42 "Hg10 mi
11:50 pm
Sat, Jan 21
30 °FClear.2 mph80%30.42 "Hg10 mi
11:20 pm30 °FPassing clouds.2 mph80%30.39 "HgN/A
10:50 pm30 °FPassing clouds.2 mph80%30.39 "HgN/A
10:20 pm30 °FPassing clouds.3 mph86%30.39 "HgN/A
9:50 pm32 °FPassing clouds.3 mph80%30.39 "HgN/A
9:20 pm32 °FPassing clouds.2 mph75%30.39 "HgN/A
8:50 pm34 °FPassing clouds.2 mph75%30.39 "HgN/A
8:20 pm34 °FPassing clouds.3 mph75%30.39 "HgN/A
7:50 pm34 °FPassing clouds.5 mph75%30.39 "HgN/A
7:20 pm34 °FPassing clouds.3 mph75%30.39 "HgN/A
6:50 pm32 °FPassing clouds.3 mph80%30.39 "HgN/A
6:20 pm32 °FPassing clouds.2 mph75%30.39 "HgN/A
5:50 pm36 °FPassing clouds.2 mph70%30.39 "HgN/A
5:20 pm32 °FPassing clouds.No wind69%30.39 "Hg5 mi
4:50 pm36 °FPassing clouds.2 mph70%30.39 "HgN/A
4:20 pm37 °FPassing clouds.2 mph65%30.39 "HgN/A
3:50 pm39 °FScattered clouds.2 mph61%30.39 "HgN/A
3:20 pm41 °FPartly sunny.3 mph57%30.39 "HgN/A
2:50 pm39 °FPartly sunny.3 mph61%30.39 "HgN/A
2:20 pm39 °FPartly sunny.5 mph61%30.39 "HgN/A
1:50 pm39 °FPartly sunny.3 mph61%30.42 "HgN/A
1:20 pm39 °FPartly sunny.6 mph61%30.42 "HgN/A
12:50 pm39 °FPartly sunny.3 mph56%30.45 "HgN/A
12:20 pm37 °FPartly sunny.6 mph60%30.45 "HgN/A
11:50 am37 °FPartly sunny.5 mph60%30.45 "HgN/A
11:20 am37 °FPartly sunny.2 mph60%30.48 "HgN/A
Weather by CustomWeather, © 2017

See weather overviewHow to use our weather pages